When you browse on this site, cookies collect data to enhance your experience and personalize the content and advertising you see.
Visit our Privacy Policy to learn more. By continuing to use the site, you agree to this use of cookies and data.
  • In Hungary
  • List of Countries
  • For 7 days
  • Water Temperature
  • Weather Map
  • News
  • Weather Widgets
  • user-avatar
    Login

    Hourly Weather Dimitrovgrad

    Today, 12 November, Tuesday

    Time Temperature Precipitation Wind Pressure Humidity
    00:00 +6°C° 0 mm 2 mps 691 mmHg 81%
    01:00 +6°C° 0 mm 2 mps 691 mmHg 83%
    02:00 +6°C° 0 mm 2 mps 691 mmHg 84%
    03:00 +6°C° 0 mm 2 mps 691 mmHg 85%
    04:00 +6°C° 0 mm 2 mps 691 mmHg 86%
    05:00 +5°C° 0 mm 3 mps 691 mmHg 86%
    06:00 +7°C° 0 mm 3 mps 691 mmHg 87%
    07:00 +7°C° 0 mm 3 mps 691 mmHg 87%
    08:00 +10°C° 0 mm 3 mps 691 mmHg 79%
    09:00 +12°C° 0 mm 4 mps 691 mmHg 71%
    10:00 +15°C° 0 mm 4 mps 692 mmHg 64%
    11:00 +16°C° 0 mm 5 mps 691 mmHg 60%
    12:00 +17°C° 0 mm 5 mps 691 mmHg 57%
    13:00 +19°C° 0 mm 5 mps 691 mmHg 54%
    14:00 +18°C° 0 mm 4 mps 690 mmHg 59%
    15:00 +16°C° 0 mm 3 mps 689 mmHg 65%
    16:00 +15°C° 0 mm 2 mps 689 mmHg 71%
    17:00 +14°C° 0 mm 2 mps 688 mmHg 75%
    18:00 +13°C° 0 mm 2 mps 688 mmHg 79%
    19:00 +12°C° 0 mm 2 mps 688 mmHg 83%
    20:00 +12°C° 0 mm 2 mps 688 mmHg 83%
    21:00 +12°C° 0 mm 2 mps 688 mmHg 84%
    22:00 +12°C° 0 mm 2 mps 687 mmHg 84%
    23:00 +12°C° 0 mm 2 mps 687 mmHg 84%

    Tomorrow, 13 November, Wednesday

    Time Temperature Precipitation Wind Pressure Humidity
    00:00 +11°C° 0 mm 3 mps 687 mmHg 83%
    01:00 +11°C° 0 mm 3 mps 686 mmHg 82%
    02:00 +10°C° 0 mm 3 mps 686 mmHg 82%
    03:00 +10°C° 0 mm 3 mps 686 mmHg 82%
    04:00 +10°C° 0 mm 3 mps 685 mmHg 83%
    05:00 +10°C° 0 mm 3 mps 685 mmHg 83%
    06:00 +10°C° 0 mm 3 mps 686 mmHg 84%
    07:00 +10°C° 0 mm 3 mps 686 mmHg 84%
    08:00 +11°C° 0 mm 3 mps 686 mmHg 78%
    09:00 +13°C° 0 mm 4 mps 686 mmHg 73%
    10:00 +14°C° 0 mm 5 mps 687 mmHg 67%
    11:00 +15°C° 0 mm 5 mps 687 mmHg 63%
    12:00 +15°C° 0 mm 5 mps 687 mmHg 59%
    13:00 +16°C° 0 mm 5 mps 686 mmHg 55%
    14:00 +15°C° 0 mm 4 mps 686 mmHg 61%
    15:00 +14°C° 0 mm 4 mps 686 mmHg 66%
    16:00 +13°C° 0 mm 3 mps 685 mmHg 71%
    17:00 +13°C° 0 mm 2 mps 686 mmHg 75%
    18:00 +12°C° 0 mm 2 mps 686 mmHg 80%
    19:00 +10°C° 0 mm 2 mps 686 mmHg 84%
    20:00 +10°C° 0 mm 2 mps 686 mmHg 85%
    21:00 +10°C° 0 mm 2 mps 686 mmHg 85%
    22:00 +10°C° 0 mm 2 mps 686 mmHg 85%
    23:00 +9°C° 0 mm 2 mps 686 mmHg 86%

    Day after tomorrow, 14 November, Thursday

    Time Temperature Precipitation Wind Pressure Humidity
    00:00 +10°C° 0 mm 1 mps 686 mmHg 87%
    01:00 +10°C° 0 mm 1 mps 687 mmHg 88%
    02:00 +10°C° 0 mm 1 mps 686 mmHg 88%
    03:00 +10°C° 0 mm 1 mps 686 mmHg 88%
    04:00 +10°C° 0 mm 1 mps 686 mmHg 88%
    05:00 +10°C° 0 mm 1 mps 687 mmHg 88%
    06:00 +10°C° 0 mm 1 mps 687 mmHg 88%
    07:00 +10°C° 0 mm 1 mps 687 mmHg 88%
    08:00 +11°C° 0 mm 1 mps 687 mmHg 81%
    09:00 +13°C° 0 mm 1 mps 688 mmHg 75%
    10:00 +14°C° 0 mm 1 mps 688 mmHg 68%
    11:00 +15°C° 0 mm 1 mps 688 mmHg 65%
    12:00 +15°C° 0 mm 1 mps 688 mmHg 62%
    13:00 +16°C° 0 mm 1 mps 688 mmHg 59%
    14:00 +15°C° 0 mm 1 mps 687 mmHg 64%
    15:00 +13°C° 0 mm 0 mps 687 mmHg 69%
    16:00 +12°C° 0 mm 0 mps 687 mmHg 73%
    17:00 +11°C° 0.1 mm 0 mps 687 mmHg 77%
    18:00 +10°C° 0.1 mm 0 mps 687 mmHg 81%
    19:00 +10°C° 0.1 mm 0 mps 687 mmHg 85%
    20:00 +10°C° 0 mm 1 mps 688 mmHg 86%
    21:00 +10°C° 0 mm 1 mps 688 mmHg 87%
    22:00 +9°C° 0 mm 1 mps 688 mmHg 88%
    23:00 +9°C° 0 mm 1 mps 688 mmHg 88%

    15 November, Friday

    Time Temperature Precipitation Wind Pressure Humidity
    00:00 +9°C° 0 mm 1 mps 688 mmHg 88%
    01:00 +9°C° 0 mm 1 mps 689 mmHg 88%
    02:00 +8°C° 0 mm 1 mps 689 mmHg 89%
    03:00 +8°C° 0 mm 1 mps 689 mmHg 89%
    04:00 +8°C° 0 mm 1 mps 689 mmHg 89%
    05:00 +8°C° 0 mm 1 mps 689 mmHg 88%
    06:00 +8°C° 0 mm 1 mps 690 mmHg 88%
    07:00 +8°C° 0 mm 1 mps 690 mmHg 87%
    08:00 +10°C° 0 mm 1 mps 691 mmHg 79%
    09:00 +12°C° 0 mm 1 mps 691 mmHg 71%
    10:00 +14°C° 0 mm 1 mps 692 mmHg 63%
    11:00 +15°C° 0 mm 2 mps 692 mmHg 59%
    12:00 +16°C° 0 mm 2 mps 692 mmHg 55%
    13:00 +17°C° 0 mm 2 mps 692 mmHg 51%
    14:00 +15°C° 0 mm 2 mps 692 mmHg 56%
    15:00 +14°C° 0 mm 1 mps 692 mmHg 62%
    16:00 +13°C° 0 mm 1 mps 692 mmHg 68%
    17:00 +12°C° 0 mm 1 mps 692 mmHg 71%
    18:00 +11°C° 0 mm 1 mps 692 mmHg 73%
    19:00 +9°C° 0 mm 2 mps 692 mmHg 76%
    20:00 +9°C° 0 mm 2 mps 692 mmHg 78%
    21:00 +9°C° 0 mm 2 mps 693 mmHg 79%
    22:00 +8°C° 0 mm 2 mps 693 mmHg 81%
    23:00 +8°C° 0 mm 2 mps 693 mmHg 82%

    16 November, Saturday

    Time Temperature Precipitation Wind Pressure Humidity
    00:00 +8°C° 0 mm 2 mps 693 mmHg 82%
    01:00 +7°C° 0 mm 2 mps 693 mmHg 83%
    02:00 +7°C° 0 mm 2 mps 693 mmHg 83%
    03:00 +8°C° 0 mm 1 mps 693 mmHg 83%
    04:00 +8°C° 0 mm 1 mps 693 mmHg 83%
    05:00 +8°C° 0 mm 1 mps 693 mmHg 83%
    06:00 +8°C° 0 mm 1 mps 694 mmHg 82%
    07:00 +8°C° 0 mm 1 mps 694 mmHg 81%
    08:00 +10°C° 0 mm 1 mps 694 mmHg 74%
    09:00 +12°C° 0 mm 1 mps 695 mmHg 67%
    10:00 +14°C° 0 mm 1 mps 695 mmHg 60%
    11:00 +14°C° 0 mm 1 mps 695 mmHg 58%
    12:00 +15°C° 0 mm 1 mps 694 mmHg 56%
    13:00 +15°C° 0 mm 1 mps 694 mmHg 53%
    14:00 +14°C° 0 mm 1 mps 694 mmHg 59%
    15:00 +13°C° 0 mm 1 mps 693 mmHg 65%
    16:00 +12°C° 0 mm 1 mps 693 mmHg 70%
    17:00 +11°C° 0 mm 1 mps 693 mmHg 73%
    18:00 +10°C° 0 mm 1 mps 693 mmHg 75%
    19:00 +9°C° 0 mm 2 mps 693 mmHg 78%
    20:00 +8°C° 0 mm 2 mps 693 mmHg 80%
    21:00 +8°C° 0 mm 2 mps 693 mmHg 81%
    22:00 +8°C° 0 mm 2 mps 693 mmHg 83%
    23:00 +7°C° 0 mm 2 mps 693 mmHg 85%

    17 November, Sunday

    Time Temperature Precipitation Wind Pressure Humidity
    00:00 +7°C° 0 mm 2 mps 693 mmHg 87%
    01:00 +7°C° 0 mm 2 mps 692 mmHg 89%
    02:00 +6°C° 0 mm 2 mps 692 mmHg 89%
    03:00 +6°C° 0 mm 2 mps 692 mmHg 90%
    04:00 +6°C° 0 mm 2 mps 692 mmHg 90%
    05:00 +6°C° 0 mm 2 mps 692 mmHg 89%
    06:00 +6°C° 0 mm 2 mps 692 mmHg 89%
    07:00 +6°C° 0 mm 2 mps 692 mmHg 88%
    08:00 +8°C° 0 mm 2 mps 692 mmHg 79%
    09:00 +10°C° 0 mm 2 mps 692 mmHg 70%
    10:00 +13°C° 0 mm 2 mps 693 mmHg 60%
    11:00 +14°C° 0 mm 2 mps 692 mmHg 56%
    12:00 +14°C° 0 mm 3 mps 692 mmHg 52%
    13:00 +14°C° 0 mm 3 mps 692 mmHg 48%
    14:00 +14°C° 0 mm 2 mps 691 mmHg 54%
    15:00 +13°C° 0 mm 2 mps 691 mmHg 60%
    16:00 +10°C° 0 mm 2 mps 690 mmHg 66%
    17:00 +9°C° 0 mm 2 mps 690 mmHg 70%
    18:00 +9°C° 0 mm 2 mps 690 mmHg 75%
    19:00 +8°C° 0 mm 2 mps 690 mmHg 79%
    20:00 +8°C° 0 mm 2 mps 690 mmHg 81%
    21:00 +8°C° 0 mm 2 mps 690 mmHg 83%
    22:00 +8°C° 0 mm 2 mps 690 mmHg 85%
    23:00 +8°C° 0 mm 2 mps 690 mmHg 85%
    Show more